This is the latest recevied weather packets stored in our database for station/object N2QKV-13. If no packets are shown the sender has not sent any weather packets the latest 10 day(s).
| Time | Temp. | Humidity | Pressure | Rain* | Wind** | Luminosity | Snow |
|---|---|---|---|---|---|---|---|
| 1778169903 | 17.22° C | 55% | 1010.3 hPa | 0 mm | - | - | - |
| 1778169604 | 16.67° C | 53% | 1010.1 hPa | 0 mm | - | - | - |
| 1778169304 | 16.11° C | 54% | 1010.2 hPa | 0 mm | - | - | - |
| 1778169004 | 16.11° C | 53% | 1010.5 hPa | 0 mm | - | - | - |
| 1778168704 | 16.11° C | 57% | 1010.5 hPa | 0 mm | - | - | - |
| 1778168403 | 16.11° C | 54% | 1010.5 hPa | 0 mm | - | - | - |
| 1778168103 | 16.67° C | 57% | 1010.6 hPa | 0 mm | - | - | - |
| 1778167803 | 16.11° C | 55% | 1011 hPa | 0 mm | - | - | - |
| 1778167504 | 15.56° C | 54% | 1011 hPa | 0 mm | - | - | - |
| 1778167204 | 15.56° C | 56% | 1011 hPa | 0 mm | - | - | - |
| 1778166904 | 15° C | 58% | 1011 hPa | 0 mm | - | - | - |
| 1778166604 | 15° C | 60% | 1010.8 hPa | 0 mm | - | - | - |
| 1778166303 | 14.44° C | 60% | 1011 hPa | 0 mm | - | - | - |
| 1778166003 | 15° C | 63% | 1011 hPa | 0 mm | - | - | - |
| 1778165703 | 14.44° C | 64% | 1011 hPa | 0 mm | - | - | - |
| 1778165404 | 14.44° C | 66% | 1011.1 hPa | 0 mm | - | - | - |
| 1778165104 | 13.89° C | 67% | 1011.1 hPa | 0 mm | - | - | - |
| 1778164803 | 13.89° C | 68% | 1011.1 hPa | 0 mm | - | - | - |
| 1778164504 | 13.89° C | 68% | 1011.1 hPa | 0 mm | - | - | - |
| 1778164203 | 13.89° C | 71% | 1011 hPa | 0 mm | - | - | - |
| 1778163904 | 13.33° C | 71% | 1011 hPa | 0 mm | - | - | - |
| 1778163604 | 13.33° C | 74% | 1011 hPa | 0 mm | - | - | - |
| 1778163303 | 13.33° C | 74% | 1011.1 hPa | 0 mm | - | - | - |
| 1778163004 | 12.78° C | 74% | 1011.1 hPa | 0 mm | - | - | - |
| 1778162704 | 12.78° C | 74% | 1011.2 hPa | 0 mm | - | - | - |
* Rain latest hour (hover to see other rain measurements)
** Current wind speed in m/s (hover to see current wind gust speed)